Weather History for Wise, VA

Change the Weather History Date:

Thursday, January 31, 2013

  Actual Average Record
Temperature  
Mean Temperature 32 °F -  
Max Temperature 37 °F 40 °F 69 °F (2002)
Min Temperature 28 °F 25 °F 0 °F (2004)
Degree Days  
Heating Degree Days 32    
Moisture  
Dew Point 24 °F    
Average Humidity 77    
Maximum Humidity 100    
Minimum Humidity 64    
Precipitation  
Precipitation 0.00 in - - ()
Sea Level Pressure  
Sea Level Pressure 29.81 in    
Wind  
Wind Speed 16 mph (WSW)    
Max Wind Speed 26 mph    
Max Gust Speed 38 mph    
Visibility 8 miles    
Events Rain , Snow    
Averages and records for this station are not official NWS values.
T = Trace of Precipitation, MM = Missing Value Source: NWS Daily Summary

Daily Weather History Graph

Daily Weather History Graph

Search for Another Location

Airport:

Trip Planner

Search our weather history database for the weather conditions in past years. The results will help you decide how hot, cold, wet, or windy it might be!

Date:

Astronomy

Jan. 31, 2013 Rise Set
Actual Time 7:33 AM EST 5:54 PM EST
Civil Twilight 7:05 AM EST 6:21 PM EST
Nautical Twilight 6:34 AM EST 6:52 PM EST
Astronomical Twilight 6:04 AM EST 7:23 PM EST
Moon 10:46 PM EST (1/31) 9:40 AM EST (1/31)
Length of Visible Light 11h 16m
Length of Day
10h 21m
Waning Gibbous, 80% of the Moon is Illuminated
Jan 31
Waning Gibbous
Feb 3
Last Quarter
Feb 10
New
Feb 17
First Quarter
Feb 25
Full

Hourly Weather History & Observations

Time (EST) Temp. Windchill Dew Point Humidity Pressure Visibility Wind Dir Wind Speed Gust Speed Precip Events Conditions
12:15 AM 37.4 °F 26.9 °F 35.6 °F 93% 29.53 in 10.0 mi West 20.7 mph 26.5 mph N/A Rain Light Rain
12:35 AM 35.6 °F 24.8 °F 35.6 °F 100% 29.55 in 7.0 mi West 19.6 mph 29.9 mph N/A Rain Light Rain
12:55 AM 35.6 °F 24.8 °F 33.8 °F 93% 29.56 in 10.0 mi West 19.6 mph 27.6 mph N/A   Overcast
1:15 AM 33.8 °F 22.8 °F 33.8 °F 100% 29.58 in 10.0 mi WNW 18.4 mph 27.6 mph N/A   Overcast
1:35 AM 33.8 °F 22.5 °F 32.0 °F 93% 29.59 in 10.0 mi West 19.6 mph 31.1 mph N/A   Overcast
1:55 AM 33.8 °F 25.8 °F 32.0 °F 93% 29.61 in 7.0 mi West 10.4 mph 26.5 mph N/A   Overcast
2:15 AM 32.0 °F 21.2 °F 32.0 °F 100% 29.63 in 2.0 mi WNW 16.1 mph 24.2 mph N/A Snow Light Snow
2:35 AM 32.0 °F 22.5 °F 32.0 °F 100% 29.64 in 1.0 mi West 12.7 mph 20.7 mph N/A Snow Light Snow
2:55 AM 32.0 °F 20.8 °F 32.0 °F 100% 29.65 in 2.0 mi West 17.3 mph 32.2 mph N/A Snow Light Snow
3:15 AM 30.2 °F 18.1 °F 30.2 °F 100% 29.67 in 2.5 mi West 18.4 mph 32.2 mph N/A Snow Light Snow
3:35 AM 30.2 °F 15.9 °F 26.6 °F 86% 29.69 in 10.0 mi West 26.5 mph 34.5 mph N/A   Overcast
3:55 AM 30.2 °F 18.1 °F 26.6 °F 86% 29.70 in 7.0 mi West 18.4 mph 29.9 mph N/A Snow Light Snow
4:15 AM 30.2 °F 18.1 °F 26.6 °F 86% 29.70 in 10.0 mi West 18.4 mph 29.9 mph N/A   Overcast
4:35 AM 30.2 °F 18.9 °F 23.0 °F 75% 29.72 in 10.0 mi West 16.1 mph 38.0 mph N/A   Overcast
4:55 AM 28.4 °F 16.6 °F 23.0 °F 80% 29.72 in 10.0 mi WSW 16.1 mph 20.7 mph N/A Snow Light Snow
5:15 AM 28.4 °F 17.5 °F 23.0 °F 80% 29.73 in 10.0 mi West 13.8 mph 24.2 mph N/A Snow Light Snow
5:35 AM 28.4 °F 15.4 °F 23.0 °F 80% 29.74 in 10.0 mi West 19.6 mph 25.3 mph N/A Snow Light Snow
5:55 AM 28.4 °F 15.8 °F 23.0 °F 80% 29.74 in 7.0 mi West 18.4 mph 31.1 mph N/A Snow Light Snow
6:15 AM 28.4 °F 16.2 °F 23.0 °F 80% 29.75 in 10.0 mi West 17.3 mph 25.3 mph N/A Snow Light Snow
6:35 AM 28.4 °F 15.4 °F 21.2 °F 74% 29.76 in 10.0 mi West 19.6 mph 28.8 mph N/A   Overcast
6:55 AM 28.4 °F 15.4 °F 19.4 °F 69% 29.76 in 10.0 mi West 19.6 mph 32.2 mph N/A   Overcast
7:15 AM 28.4 °F 16.2 °F 21.2 °F 74% 29.77 in 10.0 mi West 17.3 mph 24.2 mph N/A Snow Light Snow
7:35 AM 28.4 °F 17.0 °F 21.2 °F 74% 29.79 in 10.0 mi West 15.0 mph - N/A Snow Light Snow
7:55 AM 28.4 °F 18.0 °F 21.2 °F 74% 29.79 in 7.0 mi West 12.7 mph 26.5 mph N/A Snow Light Snow
8:15 AM 28.4 °F 18.5 °F 21.2 °F 74% 29.81 in 7.0 mi West 11.5 mph 20.7 mph N/A Snow Light Snow
8:35 AM 28.4 °F 19.1 °F 21.2 °F 74% 29.81 in 10.0 mi West 10.4 mph - N/A Snow Light Snow
8:55 AM 28.4 °F 18.0 °F 23.0 °F 80% 29.83 in 5.0 mi West 12.7 mph 17.3 mph N/A Snow Light Snow
9:15 AM 28.4 °F 18.5 °F 23.0 °F 80% 29.84 in 4.0 mi West 11.5 mph 16.1 mph N/A Snow Light Snow
9:35 AM 28.4 °F 19.7 °F 23.0 °F 80% 29.85 in 1.8 mi West 9.2 mph - N/A Snow Light Snow
9:55 AM 28.4 °F 19.1 °F 24.8 °F 86% 29.86 in 2.0 mi WSW 10.4 mph - N/A Snow Light Snow
10:15 AM 28.4 °F 19.7 °F 24.8 °F 86% 29.87 in 2.0 mi WSW 9.2 mph 17.3 mph N/A Snow Light Snow
10:35 AM 28.4 °F 17.0 °F 23.0 °F 80% 29.88 in 7.0 mi WSW 15.0 mph 18.4 mph N/A Snow Light Snow
10:55 AM 30.2 °F 18.9 °F 21.2 °F 69% 29.87 in 10.0 mi WSW 16.1 mph 23.0 mph N/A   Overcast
11:15 AM 28.4 °F 17.0 °F 21.2 °F 74% 29.88 in 10.0 mi West 15.0 mph 25.3 mph N/A   Overcast
11:35 AM 28.4 °F 19.7 °F 21.2 °F 74% 29.88 in 10.0 mi West 9.2 mph - N/A Snow Light Snow
11:55 AM 28.4 °F 17.5 °F 21.2 °F 74% 29.89 in 7.0 mi West 13.8 mph 25.3 mph N/A Snow Light Snow
12:15 PM 28.4 °F 17.5 °F 21.2 °F 74% 29.89 in 5.0 mi WSW 13.8 mph 21.9 mph N/A Snow Light Snow
12:35 PM 30.2 °F 20.2 °F 21.2 °F 69% 29.87 in 10.0 mi SW 12.7 mph 18.4 mph N/A   Overcast
12:55 PM 30.2 °F 18.9 °F 21.2 °F 69% 29.88 in 10.0 mi WSW 16.1 mph 29.9 mph N/A Snow Light Snow
1:15 PM 30.2 °F 18.9 °F 21.2 °F 69% 29.88 in 10.0 mi WSW 16.1 mph 31.1 mph N/A   Overcast
1:35 PM 30.2 °F 18.9 °F 21.2 °F 69% 29.88 in 10.0 mi WSW 16.1 mph 25.3 mph N/A Snow Light Snow
1:55 PM 30.2 °F 19.8 °F 21.2 °F 69% 29.89 in 7.0 mi West 13.8 mph 23.0 mph N/A Snow Light Snow
2:15 PM 30.2 °F 20.2 °F 23.0 °F 75% 29.90 in 3.0 mi West 12.7 mph 18.4 mph N/A Snow Light Snow
2:35 PM 30.2 °F 18.5 °F 21.2 °F 69% 29.90 in 10.0 mi West 17.3 mph 27.6 mph N/A   Overcast
2:55 PM 30.2 °F 18.5 °F 23.0 °F 75% 29.90 in 0.8 mi WSW 17.3 mph 25.3 mph N/A Snow Light Snow
3:15 PM 30.2 °F 19.3 °F 23.0 °F 75% 29.91 in 10.0 mi WSW 15.0 mph - N/A   Mostly Cloudy
3:35 PM 30.2 °F 18.9 °F 23.0 °F 75% 29.90 in 10.0 mi WSW 16.1 mph 25.3 mph N/A   Overcast
3:55 PM 32.0 °F 22.5 °F 21.2 °F 64% 29.89 in 10.0 mi West 12.7 mph 19.6 mph N/A   Mostly Cloudy
4:15 PM 32.0 °F 23.0 °F 21.2 °F 64% 29.90 in 10.0 mi WSW 11.5 mph 23.0 mph N/A   Mostly Cloudy
4:35 PM 32.0 °F 23.0 °F 21.2 °F 64% 29.90 in 10.0 mi WSW 11.5 mph - N/A   Overcast
4:55 PM 32.0 °F 22.1 °F 21.2 °F 64% 29.90 in 10.0 mi WSW 13.8 mph 17.3 mph N/A   Overcast
5:15 PM 32.0 °F 22.5 °F 21.2 °F 64% 29.90 in 10.0 mi SW 12.7 mph - N/A   Overcast
5:35 PM 32.0 °F 23.6 °F 21.2 °F 64% 29.90 in 10.0 mi SW 10.4 mph - N/A   Overcast
5:55 PM 32.0 °F 21.6 °F 21.2 °F 64% 29.90 in 10.0 mi WSW 15.0 mph 24.2 mph N/A   Overcast
6:15 PM 32.0 °F 22.1 °F 21.2 °F 64% 29.90 in 10.0 mi WSW 13.8 mph - N/A   Overcast
6:35 PM 32.0 °F 21.2 °F 21.2 °F 64% 29.91 in 10.0 mi WSW 16.1 mph - N/A   Overcast
6:55 PM 32.0 °F 22.5 °F 23.0 °F 69% 29.90 in 10.0 mi WSW 12.7 mph 18.4 mph N/A   Overcast
7:15 PM 32.0 °F 22.5 °F 23.0 °F 69% 29.90 in 10.0 mi SW 12.7 mph 18.4 mph N/A   Overcast
7:35 PM 32.0 °F 23.0 °F 23.0 °F 69% 29.90 in 10.0 mi SW 11.5 mph 17.3 mph N/A   Overcast
7:55 PM 32.0 °F 21.6 °F 23.0 °F 69% 29.91 in 10.0 mi SW 15.0 mph - N/A   Overcast
8:15 PM 32.0 °F 21.6 °F 23.0 °F 69% 29.91 in 10.0 mi SW 15.0 mph 20.7 mph N/A   Overcast
8:35 PM 32.0 °F 21.2 °F 23.0 °F 69% 29.90 in 10.0 mi WSW 16.1 mph 21.9 mph N/A   Overcast
9:15 PM 32.0 °F 22.5 °F 23.0 °F 69% 29.89 in 10.0 mi SW 12.7 mph - N/A   Overcast
9:35 PM 32.0 °F 23.6 °F 23.0 °F 69% 29.89 in 10.0 mi SW 10.4 mph 13.8 mph N/A   Overcast
9:55 PM 32.0 °F 20.8 °F 23.0 °F 69% 29.87 in 10.0 mi SW 17.3 mph 26.5 mph N/A   Overcast
10:15 PM 32.0 °F 19.8 °F 24.8 °F 75% 29.87 in 10.0 mi SW 20.7 mph 25.3 mph N/A   Overcast
10:35 PM 32.0 °F 19.8 °F 24.8 °F 75% 29.86 in 10.0 mi SW 20.7 mph 28.8 mph N/A   Overcast
10:55 PM 32.0 °F 20.5 °F 26.6 °F 80% 29.86 in 10.0 mi SW 18.4 mph 28.8 mph N/A   Overcast
11:15 PM 32.0 °F 20.1 °F 26.6 °F 80% 29.86 in 10.0 mi SW 19.6 mph 33.4 mph N/A Snow Light Snow
11:35 PM 32.0 °F 20.8 °F 26.6 °F 80% 29.85 in 10.0 mi SW 17.3 mph 23.0 mph N/A   Overcast
11:55 PM 32.0 °F 21.6 °F 26.6 °F 80% 29.84 in 10.0 mi SW 15.0 mph 25.3 mph N/A Snow Light Snow